Wahpeton, Iowa
Current Conditions -  °F | °C
As of 1:33 PM on Thursday 23 Oct 2014 (Local Time) from KMJQ Reporting Station
Clear Clear  
Wind Chill: 68°   Ceiling: Unl
Heat Index: 68°   Visibility: 10mi
Dew Point: 45°   Wind: 8mph
Humidity: 43%   Direction: 240°WSW
Pressure: 30.01"   Gusts: NA
Location:  43.4265°N, 95.1547°W
Report Text: KMJQ 231833Z AUTO 24007KT 10SM CLR 20/07 A3001 RMK AO2
Loading
Personal Weather Stations






























Interactive Weather Map
Tropical Storm Tracking
New forecast layout! Learn more

10-Day Weather Forecast

Advertisements
Track Severe Weather on mobile